This is the latest recevied weather packets stored in our database for station/object N5JXS. If no packets are shown the sender has not sent any weather packets the latest 10 day(s).
| Time | Temp. | Humidity | Pressure | Rain* | Wind** | Luminosity | Snow |
|---|---|---|---|---|---|---|---|
| 1777212718 | 0° C | 97% | 1011.8 hPa | 0 mm | - | 27 W/m² | - |
| 1777212418 | 0° C | 97% | 1012 hPa | 0 mm | - | 26 W/m² | - |
| 1777212113 | 0° C | 97% | 1011.9 hPa | 0 mm | - | 34 W/m² | - |
| 1777211809 | 0° C | 97% | 1011.9 hPa | 0 mm | - | 31 W/m² | - |
| 1777211508 | 0° C | 96% | 1011.9 hPa | 0 mm | - | 25 W/m² | - |
| 1777211203 | 0° C | 96% | 1011.5 hPa | 0 mm | - | 23 W/m² | - |
| 1777210900 | 0° C | 96% | 1011.6 hPa | 0 mm | - | 29 W/m² | - |
| 1777210599 | 0° C | 96% | 1011.5 hPa | 0 mm | - | 23 W/m² | - |
| 1777210297 | 0° C | 96% | 1011.6 hPa | 0 mm | - | 17 W/m² | - |
| 1777209993 | 0° C | 96% | 1011.9 hPa | 0 mm | - | 12 W/m² | - |
| 1777209693 | 0° C | 96% | 1011.5 hPa | 0 mm | - | 10 W/m² | - |
| 1777209390 | 0° C | 96% | 1011.5 hPa | 0 mm | - | 11 W/m² | - |
| 1777209086 | 0° C | 96% | 1011.8 hPa | 0 mm | - | 9 W/m² | - |
| 1777208781 | 0° C | 96% | 1011.8 hPa | 0 mm | - | 6 W/m² | - |
| 1777208479 | 0° C | 96% | 1011.8 hPa | 0 mm | - | 7 W/m² | - |
| 1777208175 | 0° C | 96% | 1011.6 hPa | 0 mm | - | 6 W/m² | - |
| 1777207870 | 0° C | 96% | 1011.9 hPa | 0 mm | - | 5 W/m² | - |
| 1777207565 | 0° C | 96% | 1011.4 hPa | 0 mm | - | 3 W/m² | - |
| 1777207261 | 0° C | 96% | 1011.8 hPa | 0 mm | - | 2 W/m² | - |
| 1777206955 | 0° C | 96% | 1011.8 hPa | 0 mm | - | 1 W/m² | - |
| 1777206650 | 0° C | 96% | 1011.6 hPa | 0 mm | - | 0 W/m² | - |
| 1777206346 | 0° C | 95% | 1011.9 hPa | 0 mm | - | 1 W/m² | - |
| 1777206042 | 0° C | 95% | 1011.6 hPa | 0 mm | - | 0 W/m² | - |
| 1777205738 | 0° C | 95% | 1011.8 hPa | 0 mm | - | 0 W/m² | - |
| 1777205435 | 0° C | 95% | 1012 hPa | 0 mm | - | 0 W/m² | - |
* Rain latest hour (hover to see other rain measurements)
** Current wind speed in m/s (hover to see current wind gust speed)